RYRGG6L LIMC-LIEA

Flight info

Callsign RYRGG6L
Flight time 1h 1m
Altitude 33000
Route LAGEN DCT ERTEV DCT TORTU DCT OKROK DCT AJO M194 REVDO
Aircraft B38M/M-SDE1FGHILORVWXY/HB1

Departure

Time 2026-05-09 09:45
Airport Milan Malpensa International Airport (LIMC)

Arrival

Time 2026-05-09 10:47
Airport Alghero-Fertilia Airport (LIEA)
Time Latitude Longitude Altitude Speed Heading
2026-05-09 09:30 45.62412 8.71998 732 ft 0 kts 79°
2026-05-09 09:37 45.62413 8.72002 732 ft 1 kts 79°
2026-05-09 09:37 45.62414 8.72012 732 ft 3 kts 77°
2026-05-09 09:38 45.62410 8.72074 731 ft 8 kts 122°
2026-05-09 09:38 45.62359 8.72112 730 ft 10 kts 167°
2026-05-09 09:38 45.62281 8.72135 729 ft 13 kts 168°
2026-05-09 09:38 45.62184 8.72162 727 ft 15 kts 169°
2026-05-09 09:39 45.62071 8.72194 725 ft 17 kts 169°
2026-05-09 09:39 45.61947 8.72227 723 ft 19 kts 169°
2026-05-09 09:39 45.61804 8.72267 720 ft 23 kts 169°
2026-05-09 09:39 45.61625 8.72315 718 ft 28 kts 169°
2026-05-09 09:40 45.61444 8.72364 715 ft 23 kts 166°
2026-05-09 09:40 45.61335 8.72492 712 ft 19 kts 143°
2026-05-09 09:40 45.61214 8.72541 708 ft 18 kts 169°
2026-05-09 09:40 45.61096 8.72587 699 ft 17 kts 142°
2026-05-09 09:41 45.61086 8.72717 697 ft 13 kts 80°
2026-05-09 09:41 45.61104 8.72853 700 ft 15 kts 79°
2026-05-09 09:41 45.61126 8.73002 706 ft 15 kts 73°
2026-05-09 09:41 45.61194 8.73108 701 ft 15 kts 34°
2026-05-09 09:42 45.61283 8.73195 698 ft 16 kts 33°
2026-05-09 09:42 45.61387 8.73268 701 ft 17 kts
2026-05-09 09:42 45.61507 8.73239 709 ft 18 kts 348°
2026-05-09 09:42 45.61614 8.73249 715 ft 11 kts 42°
2026-05-09 09:43 45.61634 8.73337 714 ft 11 kts 83°
2026-05-09 09:43 45.61623 8.73462 705 ft 14 kts 117°
2026-05-09 09:43 45.61588 8.73614 703 ft 20 kts 87°
2026-05-09 09:43 45.61659 8.73727 700 ft 11 kts 352°
2026-05-09 09:44 45.61667 8.73725 696 ft 0 kts 351°
2026-05-09 09:44 45.61693 8.73718 703 ft 22 kts 349°
2026-05-09 09:44 45.62096 8.73606 719 ft 94 kts 348°
2026-05-09 09:44 45.62934 8.73375 732 ft 148 kts 348°
2026-05-09 09:45 45.64077 8.73071 796 ft 184 kts 349°
2026-05-09 09:45 45.65435 8.72738 937 ft 213 kts 351°
2026-05-09 09:45 45.66982 8.72512 1219 ft 239 kts 359°
2026-05-09 09:45 45.68725 8.72638 1592 ft 267 kts
2026-05-09 09:46 45.70673 8.72701 2424 ft 280 kts 356°
2026-05-09 09:46 45.72488 8.72062 3743 ft 262 kts 332°
2026-05-09 09:46 45.73867 8.70519 4862 ft 247 kts 308°
2026-05-09 09:46 45.74683 8.68398 5677 ft 243 kts 285°
2026-05-09 09:47 45.74867 8.66021 6403 ft 242 kts 263°
2026-05-09 09:47 45.74405 8.63724 7078 ft 241 kts 240°
2026-05-09 09:47 45.73369 8.61859 7747 ft 241 kts 219°
2026-05-09 09:47 45.71964 8.60615 8370 ft 242 kts 213°
2026-05-09 09:48 45.70469 8.59503 8981 ft 244 kts 198°
2026-05-09 09:48 45.68790 8.59085 9611 ft 248 kts 180°
2026-05-09 09:48 45.67071 8.59404 10210 ft 251 kts 172°
2026-05-09 09:48 45.65343 8.59083 10594 ft 259 kts 209°
2026-05-09 09:49 45.64001 8.57337 10945 ft 269 kts 230°
2026-05-09 09:49 45.62679 8.55380 11382 ft 277 kts 223°
2026-05-09 09:49 45.61266 8.53474 11920 ft 282 kts 224°
2026-05-09 09:49 45.59877 8.51475 12487 ft 286 kts 226°
2026-05-09 09:50 45.58481 8.49390 12930 ft 294 kts 226°
2026-05-09 09:50 45.57041 8.47270 13220 ft 308 kts 226°
2026-05-09 09:50 45.55423 8.45165 13424 ft 324 kts 212°
2026-05-09 09:50 45.53316 8.43802 13594 ft 341 kts 201°
2026-05-09 09:51 45.51030 8.42690 13894 ft 352 kts 199°
2026-05-09 09:51 45.48675 8.41592 14289 ft 359 kts 200°
2026-05-09 09:51 45.46293 8.40413 14737 ft 364 kts 201°
2026-05-09 09:51 45.43903 8.39197 15229 ft 367 kts 201°
2026-05-09 09:52 45.41475 8.37989 15743 ft 371 kts 201°
2026-05-09 09:52 45.39019 8.36789 16264 ft 374 kts 202°
2026-05-09 09:52 45.36557 8.35578 16790 ft 376 kts 202°
2026-05-09 09:52 45.34073 8.34346 17301 ft 379 kts 202°
2026-05-09 09:53 45.31572 8.33110 17841 ft 382 kts 203°
2026-05-09 09:53 45.29060 8.31874 18362 ft 384 kts 203°
2026-05-09 09:53 45.26518 8.30625 18797 ft 387 kts 203°
2026-05-09 09:53 45.24000 8.29386 19262 ft 389 kts 204°
2026-05-09 09:54 45.21424 8.28120 19700 ft 391 kts 204°
2026-05-09 09:54 45.18840 8.26852 20135 ft 394 kts 204°
2026-05-09 09:54 45.17120 8.26009 20447 ft 395 kts 204°
2026-05-09 09:54 45.14517 8.24742 20892 ft 398 kts 202°
2026-05-09 09:55 45.11777 8.23944 21330 ft 407 kts 190°
2026-05-09 09:55 45.08911 8.23964 21753 ft 418 kts 178°
2026-05-09 09:55 45.06034 8.24807 22162 ft 425 kts 170°
2026-05-09 09:55 45.03172 8.25895 22581 ft 428 kts 170°
2026-05-09 09:56 45.00294 8.27007 22984 ft 430 kts 170°
2026-05-09 09:56 44.97382 8.28112 23403 ft 433 kts 170°
2026-05-09 09:56 44.94461 8.29205 23779 ft 436 kts 170°
2026-05-09 09:56 44.91530 8.30308 24116 ft 438 kts 170°
2026-05-09 09:57 44.88575 8.31429 24436 ft 440 kts 170°
2026-05-09 09:57 44.85610 8.32550 24800 ft 442 kts 170°
2026-05-09 09:57 44.82625 8.33672 25127 ft 444 kts 171°
2026-05-09 09:57 44.79633 8.34794 25469 ft 445 kts 171°
2026-05-09 09:58 44.76636 8.35921 25817 ft 447 kts 171°
2026-05-09 09:58 44.73655 8.37041 26126 ft 449 kts 171°
2026-05-09 09:58 44.70629 8.38175 26453 ft 451 kts 171°
2026-05-09 09:58 44.67594 8.39311 26774 ft 453 kts 171°
2026-05-09 09:59 44.64542 8.40452 27102 ft 454 kts 171°
2026-05-09 09:59 44.61481 8.41597 27414 ft 456 kts 171°
2026-05-09 09:59 44.58404 8.42745 27753 ft 458 kts 171°
2026-05-09 09:59 44.55314 8.43897 28075 ft 459 kts 171°
2026-05-09 10:00 44.52217 8.45050 28389 ft 461 kts 171°
2026-05-09 10:00 44.49108 8.46207 28705 ft 463 kts 171°
2026-05-09 10:00 44.45982 8.47369 29015 ft 465 kts 171°
2026-05-09 10:00 44.42849 8.48531 29321 ft 467 kts 171°
2026-05-09 10:01 44.39709 8.49743 29636 ft 471 kts 167°
2026-05-09 10:01 44.36647 8.51497 29943 ft 478 kts 162°
2026-05-09 10:01 44.33635 8.53368 30219 ft 480 kts 162°
2026-05-09 10:01 44.30575 8.55264 30447 ft 482 kts 162°
2026-05-09 10:02 44.27495 8.57153 30662 ft 483 kts 162°
2026-05-09 10:02 44.24412 8.59039 30900 ft 485 kts 162°
2026-05-09 10:02 44.21317 8.60941 31139 ft 487 kts 162°
2026-05-09 10:02 44.18218 8.62846 31434 ft 487 kts 163°
2026-05-09 10:03 44.15112 8.64749 31731 ft 487 kts 163°
2026-05-09 10:03 44.12015 8.66640 32037 ft 486 kts 163°
2026-05-09 10:03 44.08914 8.68533 32328 ft 486 kts 163°
2026-05-09 10:03 44.05817 8.70425 32621 ft 486 kts 163°
2026-05-09 10:04 44.02716 8.72316 32944 ft 486 kts 164°
2026-05-09 10:04 43.99641 8.74190 33070 ft 481 kts 164°
2026-05-09 10:04 43.96595 8.76045 33066 ft 474 kts 164°
2026-05-09 10:05 43.90634 8.79658 33083 ft 468 kts 164°
2026-05-09 10:05 43.84680 8.83266 33080 ft 466 kts 164°
2026-05-09 10:06 43.78729 8.86862 33077 ft 466 kts 164°
2026-05-09 10:06 43.72774 8.90454 33072 ft 466 kts 164°
2026-05-09 10:07 43.66824 8.94035 33083 ft 465 kts 164°
2026-05-09 10:07 43.63823 8.95595 33107 ft 453 kts 177°
2026-05-09 10:07 43.60730 8.95935 33105 ft 443 kts 188°
2026-05-09 10:08 43.54628 8.95780 33090 ft 443 kts 188°
2026-05-09 10:08 43.48453 8.95857 33094 ft 443 kts 187°
2026-05-09 10:09 43.42296 8.95824 33080 ft 442 kts 188°
2026-05-09 10:09 43.36174 8.95526 33088 ft 437 kts 192°
2026-05-09 10:10 43.30276 8.94836 33087 ft 438 kts 192°
2026-05-09 10:10 43.24201 8.94136 33081 ft 436 kts 192°
2026-05-09 10:11 43.18161 8.93433 33072 ft 435 kts 192°
2026-05-09 10:11 43.12165 8.92741 33069 ft 435 kts 192°
2026-05-09 10:12 43.06127 8.92044 33070 ft 435 kts 192°
2026-05-09 10:12 43.00088 8.91350 33069 ft 435 kts 192°
2026-05-09 10:13 42.94063 8.90657 33067 ft 435 kts 192°
2026-05-09 10:13 42.88021 8.89964 33037 ft 435 kts 192°
2026-05-09 10:14 42.82025 8.89278 33063 ft 435 kts 192°
2026-05-09 10:14 42.75988 8.88588 33067 ft 435 kts 192°
2026-05-09 10:15 42.69953 8.87900 33071 ft 435 kts 192°
2026-05-09 10:15 42.63920 8.87213 33072 ft 434 kts 192°
2026-05-09 10:16 42.57890 8.86528 33074 ft 434 kts 192°
2026-05-09 10:16 42.51897 8.85848 33078 ft 434 kts 192°
2026-05-09 10:17 42.45868 8.85165 33080 ft 435 kts 192°
2026-05-09 10:17 42.39831 8.84482 33070 ft 434 kts 192°
2026-05-09 10:18 42.33792 8.83800 33063 ft 437 kts 192°
2026-05-09 10:18 42.27756 8.83125 33065 ft 434 kts 192°
2026-05-09 10:19 42.21744 8.82447 33067 ft 432 kts 192°
2026-05-09 10:19 42.15742 8.81774 33058 ft 432 kts 192°
2026-05-09 10:20 42.09807 8.81111 33049 ft 432 kts 192°
2026-05-09 10:20 42.03806 8.80438 33042 ft 432 kts 192°
2026-05-09 10:21 41.97805 8.79771 33051 ft 432 kts 192°
2026-05-09 10:21 41.91806 8.79103 33050 ft 432 kts 192°
2026-05-09 10:22 41.85812 8.78437 33026 ft 432 kts 191°
2026-05-09 10:22 41.79844 8.77775 33047 ft 433 kts 191°
2026-05-09 10:23 41.73876 8.76849 33047 ft 430 kts 195°
2026-05-09 10:23 41.67990 8.75727 33004 ft 410 kts 195°
2026-05-09 10:23 41.65295 8.75229 32988 ft 375 kts 195°
2026-05-09 10:24 41.62774 8.74735 33026 ft 359 kts 196°
2026-05-09 10:24 41.60319 8.74242 32657 ft 355 kts 196°
2026-05-09 10:24 41.57870 8.73765 32214 ft 355 kts 196°
2026-05-09 10:24 41.55428 8.73304 31814 ft 354 kts 195°
2026-05-09 10:25 41.53004 8.72843 31307 ft 356 kts 195°
2026-05-09 10:25 41.50548 8.72369 30809 ft 356 kts 195°
2026-05-09 10:25 41.48108 8.71903 30202 ft 353 kts 195°
2026-05-09 10:25 41.45688 8.71443 29525 ft 347 kts 195°
2026-05-09 10:26 41.43314 8.70991 28773 ft 344 kts 195°
2026-05-09 10:26 41.40930 8.70529 27974 ft 342 kts 194°
2026-05-09 10:26 41.38594 8.70087 27166 ft 336 kts 194°
2026-05-09 10:26 41.36267 8.69642 26313 ft 338 kts 194°
2026-05-09 10:27 41.33970 8.69162 25451 ft 329 kts 200°
2026-05-09 10:27 41.31854 8.68226 24665 ft 323 kts 208°
2026-05-09 10:27 41.29807 8.67008 23876 ft 321 kts 207°
2026-05-09 10:27 41.27770 8.65816 22975 ft 318 kts 207°
2026-05-09 10:28 41.25749 8.64642 22055 ft 315 kts 207°
2026-05-09 10:28 41.23751 8.63474 21148 ft 312 kts 207°
2026-05-09 10:28 41.21775 8.62316 20285 ft 308 kts 206°
2026-05-09 10:28 41.19823 8.61175 19443 ft 306 kts 206°
2026-05-09 10:29 41.17874 8.60037 18627 ft 305 kts 206°
2026-05-09 10:29 41.15937 8.58908 17745 ft 303 kts 206°
2026-05-09 10:29 41.14014 8.57787 16850 ft 300 kts 206°
2026-05-09 10:29 41.12107 8.56687 15973 ft 298 kts 205°
2026-05-09 10:30 41.10188 8.55675 15125 ft 297 kts 199°
2026-05-09 10:30 41.08186 8.54992 14302 ft 296 kts 195°
2026-05-09 10:30 41.06193 8.54362 13749 ft 294 kts 197°
2026-05-09 10:30 41.04220 8.53615 13284 ft 301 kts 199°
2026-05-09 10:31 41.02204 8.52810 12794 ft 304 kts 198°
2026-05-09 10:31 41.00156 8.52028 12327 ft 307 kts 198°
2026-05-09 10:31 40.98086 8.51258 11855 ft 310 kts 198°
2026-05-09 10:31 40.96001 8.50476 11386 ft 312 kts 198°
2026-05-09 10:32 40.93913 8.49683 11013 ft 311 kts 198°
2026-05-09 10:32 40.91834 8.48896 10644 ft 310 kts 198°
2026-05-09 10:32 40.89806 8.48134 10269 ft 291 kts 198°
2026-05-09 10:32 40.87931 8.47430 9905 ft 270 kts 198°
2026-05-09 10:33 40.86175 8.46767 9499 ft 255 kts 198°
2026-05-09 10:33 40.84533 8.46146 9105 ft 243 kts 198°
2026-05-09 10:33 40.82942 8.45547 8709 ft 233 kts 198°
2026-05-09 10:33 40.81406 8.44969 8394 ft 222 kts 197°
2026-05-09 10:34 40.79923 8.44412 8140 ft 227 kts 197°
2026-05-09 10:34 40.76944 8.43290 7592 ft 222 kts 197°
2026-05-09 10:34 40.75470 8.42737 7292 ft 219 kts 196°
2026-05-09 10:35 40.73994 8.42184 7031 ft 224 kts 196°
2026-05-09 10:35 40.72503 8.41625 6764 ft 222 kts 195°
2026-05-09 10:35 40.71029 8.41071 6497 ft 219 kts 195°
2026-05-09 10:35 40.69561 8.40522 6203 ft 219 kts 195°
2026-05-09 10:36 40.68100 8.39975 5909 ft 218 kts 194°
2026-05-09 10:36 40.66658 8.39435 5614 ft 218 kts 194°
2026-05-09 10:36 40.65200 8.38890 5317 ft 218 kts 194°
2026-05-09 10:36 40.63746 8.38346 5024 ft 218 kts 194°
2026-05-09 10:37 40.62282 8.37795 4744 ft 220 kts 194°
2026-05-09 10:37 40.60809 8.37247 4455 ft 219 kts 194°
2026-05-09 10:37 40.59350 8.36703 4158 ft 218 kts 193°
2026-05-09 10:37 40.57901 8.36160 3988 ft 212 kts 193°
2026-05-09 10:38 40.56457 8.35624 4008 ft 218 kts 193°
2026-05-09 10:38 40.55017 8.35085 4001 ft 209 kts 193°
2026-05-09 10:38 40.53688 8.34585 3983 ft 190 kts 192°
2026-05-09 10:38 40.52372 8.34100 4012 ft 205 kts 193°
2026-05-09 10:39 40.51012 8.33593 4014 ft 201 kts 193°
2026-05-09 10:39 40.49676 8.32990 4005 ft 205 kts 201°
2026-05-09 10:39 40.48370 8.32192 3698 ft 206 kts 201°
2026-05-09 10:39 40.47095 8.31421 3326 ft 197 kts 200°
2026-05-09 10:40 40.45830 8.30665 3031 ft 199 kts 200°
2026-05-09 10:40 40.44560 8.29907 3002 ft 204 kts 200°
2026-05-09 10:40 40.43275 8.29123 2999 ft 204 kts 204°
2026-05-09 10:40 40.42292 8.27775 2864 ft 206 kts 237°
2026-05-09 10:41 40.41973 8.25956 2607 ft 209 kts 269°
2026-05-09 10:41 40.42389 8.24117 2507 ft 216 kts 292°
2026-05-09 10:41 40.43034 8.22298 2498 ft 217 kts 293°
2026-05-09 10:41 40.43683 8.20497 2491 ft 220 kts 296°
2026-05-09 10:42 40.44738 8.19171 2483 ft 210 kts 338°
2026-05-09 10:42 40.46145 8.18934 2485 ft 203 kts 14°
2026-05-09 10:42 40.47455 8.19503 2493 ft 196 kts 31°
2026-05-09 10:42 40.48668 8.20319 2456 ft 197 kts 33°
2026-05-09 10:43 40.49470 8.20838 2281 ft 188 kts 31°
2026-05-09 10:43 40.50618 8.21528 2039 ft 179 kts 30°
2026-05-09 10:43 40.51746 8.22199 2001 ft 177 kts 31°
2026-05-09 10:43 40.52861 8.22866 1996 ft 174 kts 30°
2026-05-09 10:44 40.53970 8.23501 1930 ft 173 kts 28°
2026-05-09 10:44 40.55075 8.24060 1636 ft 166 kts 27°
2026-05-09 10:44 40.56106 8.24615 1454 ft 160 kts 30°
2026-05-09 10:44 40.57095 8.25275 1181 ft 154 kts 33°
2026-05-09 10:45 40.58007 8.25917 859 ft 145 kts 30°
2026-05-09 10:46 40.61645 8.28133 177 ft 139 kts 27°
2026-05-09 10:46 40.62489 8.28648 69 ft 118 kts 22°
2026-05-09 10:46 40.63093 8.29007 88 ft 77 kts 24°
2026-05-09 10:46 40.63530 8.29271 88 ft 62 kts 24°
2026-05-09 10:47 40.63800 8.29529 91 ft 31 kts 57°
2026-05-09 10:47 40.63778 8.29646 88 ft 10 kts 172°
2026-05-09 10:47 40.63707 8.29621 90 ft 13 kts 203°
2026-05-09 10:47 40.63602 8.29559 87 ft 19 kts 204°
2026-05-09 10:48 40.63479 8.29485 84 ft 20 kts 204°
2026-05-09 10:48 40.63351 8.29460 84 ft 19 kts 170°
2026-05-09 10:48 40.63224 8.29472 85 ft 17 kts 198°
2026-05-09 10:48 40.63125 8.29410 86 ft 16 kts 203°
2026-05-09 10:49 40.63065 8.29400 85 ft 2 kts 137°
2026-05-09 10:49 40.63054 8.29432 84 ft 6 kts 113°
2026-05-09 10:49 40.63052 8.29439 84 ft 0 kts 114°